{"data":{"norad_id":51638,"epoch":"2026-09-18T13:23:36.485088Z","epoch_age_seconds":193480,"freshness":"STALE","line1":"1 51638U 22012S   26261.55806117  .00000335  00000+0  92280-3 0  9994","line2":"2 51638  87.8904  17.6787 0002010 100.4830 259.6524 13.10369881221565","mean_motion":13.10369881,"eccentricity":0.000201,"inclination_deg":87.8904,"raan_deg":17.6787,"arg_perigee_deg":100.483,"mean_anomaly_deg":259.6524,"bstar":0.0009228,"rev_number":22156,"period_min":109.89263572672,"perigee_km":1220.2009299055,"apogee_km":1223.2560758376,"semimajor_km":7599.8655028716,"source":"CELESTRAK","updated_at":"2026-09-20T09:00:44.710958Z"}}